Hourly Weather Roundup
Issued by NWS Central Illinois

Home | Current Version | Previous Version | Text Only | Print | Product List | Glossary On
Versions: 1 2 3 4 5 6 7 8 9 10 11 12 13 14 15 16 17 18 19 20 21 22 23 24 25 26 27 28 29 30 31 32 33 34 35 36 37 38 39 40 41 42 43 44 45 46 47 48 49 50
000
NZUS43 KILX 181010
HWRILX

Area Weather Roundup
National Weather Service Lincoln IL
500 AM CDT FRI AUG 18 2017

NOTE:  "FAIR" indicates few or no clouds below 12,000 feet, with
       no sigificant weather and/or obstructions to visibility.


CITY           SKY/WX    TMP DP  RH WIND       PRES   REMARKS
Bloomington    CLEAR     64  62  93 W7        29.89R
Champaign      CLEAR     63  61  93 W5        29.88R
Danville       CLOUDY    64  63  97 W7        29.84R
Decatur        CLEAR     66  62  87 W5        29.88S
Effingham      CLEAR     64  64 100 W6        29.92R
Flora          CLEAR     69  65  85 W9        29.90R
Galesburg      PTCLDY    62  61  98 W5        29.89S
Jacksonville   CLEAR     61  59  94 SW3       29.89F
Lacon          CLEAR     64  63  94 SW5       29.85S
Lawrenceville  CLEAR     67  64  90 W5        29.89R
Litchfield     PTCLDY    63  61  94 W5        29.91R
$$


CITY           SKY/WX    TMP DP  RH WIND       PRES   REMARKS
Lincoln        CLEAR     68  64  86 CALM      29.88S
Macomb         CLEAR     62  60  96 W5        29.90S
Mattoon        CLOUDY    66  65  96 W7        29.88R
Mt Carmel AP   CLEAR     64  62  94 W7        29.89R
Olney-Noble AP CLEAR     66  64  93 W5        29.90R
Paris AP       CLOUDY    64  64  98 W6        29.88R
Peoria         CLEAR     65  63  93 W3        29.87S
Pontiac        CLEAR     65  64  98 W7        29.86R
Rantoul        CLEAR     65  64  94 W6        29.87R
Robinson       PTCLDY    64  63  97 W5        29.89R
Springfield    PTCLDY    63  61  93 SW6       29.89S
Taylorville    CLOUDY    62  62  99 CALM      29.90R
$$

...REGIONAL REPORTS...


CITY           SKY/WX    TMP DP  RH WIND       PRES   REMARKS
Chicago O`Hare PTCLDY    68  62  81 W7        29.79R
Kankakee       CLEAR     64  63  94 W7        29.84R
Moline         CLEAR     66  61  84 W6        29.86S
Mount Sterling PTCLDY    64  59  86 W5        29.89F
Mount Vernon   CLEAR     62  62 100 SW3       29.92R FOG
Pittsfield     CLEAR     65  61  86 W5        29.92S
Quincy         CLEAR     64  60  87 W3        29.90S
Rockford       PTCLDY    64  62  93 W8        29.82S
$$


CITY           SKY/WX    TMP DP  RH WIND       PRES   REMARKS
Burlington     CLEAR     63  61  93 CALM      29.89S
Cedar Rapids   CLEAR     58  58 100 W5        29.86F
Des Moines     CLOUDY    63  60  90 CALM      29.90R
Kirksville     CLEAR     61  59  93 CALM      29.92F
Ottumwa        CLEAR     61  59  93 SW3       29.90S
St Louis       PTCLDY    68  64  87 W6        29.93R
$$


CITY           SKY/WX    TMP DP  RH WIND       PRES   REMARKS
Terre Haute    PTCLDY    64  62  93 CALM      29.87R
Evansville     CLEAR     69  66  90 W3        29.90S
Indianapolis   PTCLDY    67  65  93 W7        29.85R
Lafayette      CLEAR     64  64 100 W5        29.84R
Madison        CLOUDY    65  62  90 VRB5      29.79R
Milwaukee      CLOUDY    69  61  75 W14G20    29.74S
$$






USA.gov is the U.S. government's official web portal to all federal, state and local government web resources and services.